Foret Viam-Lestard (19) - K

Date : 30/06/2012
Distance : 4,100 km

Place Nom Licence Catégorie Club Temps min/km CN à J-60 Points Différence Nouveau CN
1 GUILLEMET Océane 22819 D16 3318AQ 0:42:31 10'22 4389 5042 +653 4732
2 BORNARD Julie 9402 D16 7305RA 0:47:28 11'34 4381 4516 +135 4607
3 PETER-JAN Lucile 19276 D16 3705CE 0:47:34 11'36 4520 4506 -14 4578
4 LUTHRINGER Coline 10091 D16 8809LO 0:49:17 12'01 4161 4349 +188 4352
5 PICAZO Marie 16555 D16 8405PR 0:49:36 12'05 4009 4322 +313 4012
6 BERRARD Anna 19762 D16 2607RA 0:49:38 12'06 3859 4319 +460 4009
7 BASSET Fiona 23384 D16 6911RA 0:53:34 13'03 4029 4002 -27 4142
8 FOL Loreline 16393 D16 3105MP 0:53:56 13'09 3599 3974 +375 4058
9 MOUSSU Sarah 22301 D16 3318AQ 0:54:41 13'20 3259 3920 +661 3748
10 DELENNE Camilla 13800 D16 1307PR 0:54:58 13'24 3796 3900 +104 3935
11 ROULLEAUX Julie 11559 D16 9105IF 0:55:34 13'33 4971 3858 -1113 4979
12 GIRARD Lucille 19689 D16 3705CE 0:57:26 14'00 4835 3732 -1103 4996
13 FALGA Beatrice 12403 D16 6911RA 0:58:55 14'22 3628 3638 +10 3784
14 CHARDOT Marion 22315 D16 7807IF 0:59:28 14'30 3893 3605 -288 4032
15 LEMERCIER Victoire 11454 D16 5407LO 1:00:29 14'45 3539 3544 +5 3656
16 DEFIX Julia 19894 D16 4203RA 1:03:17 15'26 3425 3387 -38 3536
17 BESSON Manon 20625 D18 4201RA 1:04:45 15'47 3310 2913
18 ANGLADE Lucile 21188 D16 5604BR 1:06:23 16'11 3592 3229 -363 3680
19 DUQUENNE Audrey 23885 D16 5907NO 1:08:56 16'48 3642 3110 -532 3619
20 BISSIERE Camille 19486 D16 4709AQ 1:09:48 17'01 3932 3071 -861 3957
21 CLAUZEAU Cléa 21958 D16 1705PC 1:10:26 17'10 3322 3043 -279 3343
22 RIVOLLIER Isaline 22451 D16 4201RA 1:11:13 17'22 4252 3010 -1242 4252
23 CREUSAT Eva 23806 D16 8809LO 1:12:29 17'40 3377 2957 -420 3456
24 TRESSOL Ludivine 20533 D18 4704AQ 1:26:27 21'05 2694 2480 -214 2809
25 BERCHE Léa 24420 D16 5907NO 1:32:02 22'26 3033 2329 -704 3041
26 CAZEMAYOR Tess 22291 D16 3318AQ 1:37:04 23'40 2241 2208 -33 2658
27 PRIAT Maylis 23365 D16 2406AQ 1:39:59 24'23 1858 2144 +286 2474
28 LAURENT Manon 25577 D16 5907NO 1:43:41 25'17 1953 2067 +114 2352
29 BULLIER Alisson 23427 D16 0207PI 1:46:25 25'57 2732 2014 -718 2729
30 RIOU BENARD Clara 26494 D18 8311AZ 1:47:23 26'11 1996 2020
PERISSAT Fanette 23192 D18 7808IF pm None 1621 0 1621
nc MANDIN Mathieu 25795 H16 3705CE 0:50:58 12'25